Terug naar catalogus

STARLINK-36618

ActiefCommunicatieVLEO
NORAD 67847·PAYLOAD·🇺🇸 United States

Gelanceerd Feb 16, 2026 vanaf Vandenberg Space Force Base

Loading…

Volgende Passages (komende 24 uur)

TLE

VersSource: CelesTrak SupGP

Epoch: Sep 15, 2026, 04:18 UTC

1 67847C 26033AC  26258.17965278 -.00049583  00000+0 -17954-2 0  2580
2 67847  43.0033 262.3044 0001562 276.2770 274.9706 15.27611512    10

Volg STARLINK-36618 in realtime met AllMySat

Download on the App Store